Regional Weather Roundup
Issued by NWS Nashville, TN

Home | Current Version | Previous Version | Text Only | Print | Product List | Glossary On
Versions: 1 2 3 4 5 6 7 8 9 10 11 12 13 14 15 16 17 18 19 20 21 22 23 24 25 26 27 28 29 30 31 32 33 34 35 36 37 38 39 40 41 42 43 44 45 46 47 48 49 50
000
ASUS44 KOHX 272310
RWROHX
MIDDLE TENNESSEE HOURLY WEATHER ROUNDUP
NATIONAL WEATHER SERVICE NASHVILLE TN
500 PM CST MON FEB 27 2017

NOTE: "FAIR" INDICATES FEW OR NO CLOUDS BELOW 12,000 FEET WITH
NO SIGNIFICANT WEATHER AND/OR OBSTRUCTIONS TO VISIBILITY.

* THESE REPORTS ARE NOT UNDER NWS QUALITY CONTROL AND MAY NOT
  REPORT WEATHER SUCH AS PRECIPITATION AND FOG.


TNZ005>011-023>034-057-059-062>066-078-080-280000
...NORTHERN MIDDLE TENNESSEE...

CITY           SKY/WX    TMP DP  RH WIND       PRES   REMARKS
CLARKSVILLE    CLEAR     62  42  47 S5        30.12R
CROSSVILLE     CLOUDY    50  39  66 S8        30.21R
GALLATIN       CLEAR     61  43  51 S8        30.19R
DICKSON        CLEAR     60  42  51 VRB6      30.13S
LIVINGSTON     CLOUDY    56  40  55 S8        30.19R
NASHVILLE      MOCLDY    61  42  49 SE12      30.16S
PORTLAND       CLEAR     59  43  55 S12       30.16R
SMYRNA         CLOUDY    59  45  59 S8        30.18R
SPARTA         CLOUDY    55  43  62 S6        30.18S
SPRINGFIELD    CLEAR     61  43  51 S7G14     30.13S
WEST NASHVILLE CLEAR     61  41  48 S9        30.15S
$$
TNZ056-058-060-061-075>077-079-093>097-280000
...SOUTHERN MIDDLE TENNESSEE...

CITY           SKY/WX    TMP DP  RH WIND       PRES   REMARKS
COLUMBIA       CLEAR     57  52  82 SE7       30.16R
FAYETTEVILLE   CLOUDY    55  48  76 S6        30.19R
LEWISBURG      CLOUDY    56  46  69 S8        30.18
MCMINNVILLE    CLOUDY    55  45  67 S6        30.20R
MURFREESBORO     N/A     57  44  62 S9        30.18R
SHELBYVILLE    CLEAR     55  48  76 S9        30.20R
TULLAHOMA      CLOUDY    54  45  71 S7        30.20R
WINCHESTER     CLOUDY    54  46  76 S9        30.21R
$$


...KEY TO REMARKS...
VSB - VISIBILITY IN MILES
WCI - WIND CHILL INDEX
HX  - HEAT INDEX




USA.gov is the U.S. government's official web portal to all federal, state and local government web resources and services.